Overview Statistics Trail Chart Weather Telemetry Raw packets
 

This is the latest recevied weather packets stored in our database for station/object KF6FPU-15. If no packets are shown the sender has not sent any weather packets the latest 10 day(s).

<< 27 28 29 30 31 32 33 >>
Time Temp. Humidity Pressure Rain* Wind** Luminosity Snow
1788221581 31.11° C 18% 1011 hPa - - - -
1788220981 31.11° C 18% 1011 hPa - - - -
1788220381 31.67° C 18% 1011 hPa - - - -
1788219781 32.22° C 18% 1011 hPa - - - -
1788218581 34.44° C 18% 1011.1 hPa - - - -
1788217981 37.22° C 17% 1011.2 hPa - - - -
1788217381 37.22° C 17% 1011.2 hPa - - - -
1788216781 36.67° C 17% 1011.3 hPa - - - -
1788216181 35.56° C 17% 1011.4 hPa - - - -
1788215581 36.67° C 17% 1011.4 hPa - - - -
1788214981 36.67° C 17% 1011.6 hPa - - - -
1788214381 36.67° C 17% 1011.7 hPa - - - -
1788213781 36.11° C 17% 1011.8 hPa - - - -
1788213181 36.11° C 17% 1011.9 hPa - - - -
1788211981 36.11° C 17% 1012.1 hPa - - - -
1788211381 36.11° C 17% 1012.3 hPa - - - -
1788210781 35.56° C 17% 1012.5 hPa - - - -
1788210181 36.67° C 17% 1012.6 hPa - - - -
1788209581 36.67° C 17% 1012.6 hPa - - - -
1788208981 36.11° C 17% 1012.6 hPa - - - -
1788208381 36.11° C 17% 1012.5 hPa - - - -
1788207781 36.11° C 17% 1012.6 hPa - - - -
1788207181 35° C 18% 1012.7 hPa - - - -
1788206581 35° C 18% 1012.7 hPa - - - -
1788205381 34.44° C 18% 1012.9 hPa - - - -

* Rain since midnight (hover to see other rain measurements)
** Current wind speed in m/s (hover to see current wind gust speed)